Погода в Куритибе

Бразилия     25°27′34″S   49°14′54″W
темп.,
°C
ветер,
м/с
пор.,
м/с
влажн.,
%
обл.,
%
осадки,
мм/ч
давл.,
гПа
погр.,
м
24 января, вс
вс2400:00+19св2488100 0.8 1017274
03:00+19св1286100 0.8 1015189
06:00+18в238598 0.0 1016149
09:00+21в237199 0.0 1016401
12:00+26всв335292 0.4 10151015
15:00+27всв235477 7.7 10121173
18:00+21всв3683100 7.9 1013393
21:00+20всв2588100 13.2 1015344
25 января, пн
пн2500:00+19св2488100 3.0 1014366
03:00+19с2685100 4.3 1012375
06:00+19с1383100 0.3 1012223
09:00+23с2562100 0.5 1014720
12:00+27ссз345297 2.7 10131365
15:00+26ююв015997 9.7 1011863
18:00+21св2379100 5.9 1011357
21:00+21с2580100 9.4 1013385
26 января, вт
вт2600:00+20ссз2688100 5.1 1012434
03:00+19сз3888100 6.1 1011524
06:00+19с2884100 0.1 1011427
09:00+23ссз386492 0.1 1012922
12:00+23ссз3769100 1.9 1012809
15:00+27ссз475689 5.5 10091350
18:00+24ссз3868100 4.1 1009692
21:00+22с3877100 6.5 1011510
27 января, ср
ср2700:00+21ссз3780100 0.3 1012335
03:00+20с2777100 0.4 1009293
06:00+20ссз2873100 0.0 1009387
09:00+23сз4116899 0.0 1010711
12:00+29сз594890 0.0 10081498
15:00+27зсз475788 1.1 10051000
18:00+26зсз3663100 2.5 1006790
21:00+23сз3771100 7.4 1008476
28 января, чт
чт2800:00+22ссз3775100 0.1 1007369
03:00+22сз3979100 0.1 1006511
06:00+21сз41179100 0.0 1007577
09:00+25сз5106098 0.0 1008940
12:00+29сз584893 0.0 10061724
15:00+27зсз476096 2.1 10051114
18:00+23сз4974100 4.1 1006639
21:00+22сз4977100 5.3 1008600